Zurück zum Katalog

KOSMOS-2578

AktivMilitärSSO
NORAD 61180·PAYLOAD·🇷🇺 Russia
Dieser Satellitenname wurde noch nicht durch offizielle Quellen bestätigt.

Gestartet Sep 17, 2024 von Plesetsk Cosmodrome

Loading…

Nächste Überflüge (nächste 24 Stunden)

TLE

AktuellSource: Space-Track

Epoche: Sep 14, 2026, 05:06 UTC

1 61180U 24166B   26257.21270046  .00019551  00000-0  13029-3 0  9998
2 61180  96.6629 145.0050 0000847  24.2776 335.8531 15.75412227114750

Verfolge KOSMOS-2578 in Echtzeit mit AllMySat

Download on the App Store